Year,Month,Day,Hour,Minute,Value (Times are PST for temperature in C)
2014,09,18,00,00,13.90
2014,09,18,00,01,13.90
2014,09,18,00,02,13.90
2014,09,18,00,03,13.90
2014,09,18,00,04,13.90
2014,09,18,00,05,14.00
2014,09,18,00,06,14.00
2014,09,18,00,07,14.00
2014,09,18,00,08,14.00
2014,09,18,00,09,14.00
2014,09,18,00,10,14.10
2014,09,18,00,11,14.10
2014,09,18,00,12,14.10
2014,09,18,00,13,14.10
2014,09,18,00,14,14.10
2014,09,18,00,15,14.10
2014,09,18,00,16,14.10
2014,09,18,00,17,14.10
2014,09,18,00,18,14.10
2014,09,18,00,19,14.10
2014,09,18,00,20,14.10
2014,09,18,00,21,14.10
2014,09,18,00,22,14.10
2014,09,18,00,23,14.10
2014,09,18,00,24,14.10
2014,09,18,00,25,14.10
2014,09,18,00,26,14.10
2014,09,18,00,27,14.10
2014,09,18,00,28,14.10
2014,09,18,00,29,14.10
2014,09,18,00,30,14.10
2014,09,18,00,31,14.10
2014,09,18,00,32,14.10
2014,09,18,00,33,14.10
2014,09,18,00,34,14.10
2014,09,18,00,35,14.10
2014,09,18,00,36,14.20
2014,09,18,00,37,14.20
2014,09,18,00,38,14.10
2014,09,18,00,39,14.10
2014,09,18,00,40,14.00
2014,09,18,00,41,13.90
2014,09,18,00,42,13.80
2014,09,18,00,43,13.70
2014,09,18,00,44,13.50
2014,09,18,00,45,13.40
2014,09,18,00,46,13.30
2014,09,18,00,47,13.20
2014,09,18,00,48,13.20
2014,09,18,00,49,13.20
2014,09,18,00,50,13.20
2014,09,18,00,51,13.10
2014,09,18,00,52,13.10
2014,09,18,00,53,13.10
2014,09,18,00,54,13.00
2014,09,18,00,55,13.00
2014,09,18,00,56,12.90
2014,09,18,00,57,12.90
2014,09,18,00,58,12.90
2014,09,18,00,59,12.90
2014,09,18,01,00,12.80
2014,09,18,01,01,12.80
2014,09,18,01,02,12.80
2014,09,18,01,03,12.80
2014,09,18,01,04,12.80
2014,09,18,01,05,12.80
2014,09,18,01,06,12.80
2014,09,18,01,07,12.80
2014,09,18,01,08,12.80
2014,09,18,01,09,12.80
2014,09,18,01,10,12.80
2014,09,18,01,11,12.80
2014,09,18,01,12,12.80
2014,09,18,01,13,12.80
2014,09,18,01,14,12.80
2014,09,18,01,15,12.80
2014,09,18,01,16,12.80
2014,09,18,01,17,12.80
2014,09,18,01,18,12.80
2014,09,18,01,19,12.80
2014,09,18,01,20,12.80
2014,09,18,01,21,12.80
2014,09,18,01,22,12.80
2014,09,18,01,23,12.80
2014,09,18,01,24,12.80
2014,09,18,01,25,12.80
2014,09,18,01,26,12.80
2014,09,18,01,27,12.80
2014,09,18,01,28,12.80
2014,09,18,01,29,12.90
2014,09,18,01,30,12.90
2014,09,18,01,31,12.90
2014,09,18,01,32,12.90
2014,09,18,01,33,12.90
2014,09,18,01,34,12.90
2014,09,18,01,35,12.90
2014,09,18,01,36,12.90
2014,09,18,01,37,12.90
2014,09,18,01,38,12.90
2014,09,18,01,39,12.90
2014,09,18,01,40,12.90
2014,09,18,01,41,12.90
2014,09,18,01,42,12.90
2014,09,18,01,43,12.90
2014,09,18,01,44,12.90
2014,09,18,01,45,12.90
2014,09,18,01,46,12.80
2014,09,18,01,47,12.80
2014,09,18,01,48,12.80
2014,09,18,01,49,12.80
2014,09,18,01,50,12.80
2014,09,18,01,51,12.80
2014,09,18,01,52,12.70
2014,09,18,01,53,12.70
2014,09,18,01,54,12.70
2014,09,18,01,55,12.70
2014,09,18,01,56,12.70
2014,09,18,01,57,12.70
2014,09,18,01,58,12.70
2014,09,18,01,59,12.70
2014,09,18,02,00,12.70
2014,09,18,02,01,12.60
2014,09,18,02,02,12.60
2014,09,18,02,03,12.60
2014,09,18,02,04,12.60
2014,09,18,02,05,12.50
2014,09,18,02,06,12.50
2014,09,18,02,07,12.50
2014,09,18,02,08,12.50
2014,09,18,02,09,12.50
2014,09,18,02,10,12.50
2014,09,18,02,11,12.50
2014,09,18,02,12,12.50
2014,09,18,02,13,12.50
2014,09,18,02,14,12.50
2014,09,18,02,15,12.50
2014,09,18,02,16,12.50
2014,09,18,02,17,12.50
2014,09,18,02,18,12.50
2014,09,18,02,19,12.40
2014,09,18,02,20,12.40
2014,09,18,02,21,12.40
2014,09,18,02,22,12.40
2014,09,18,02,23,12.40
2014,09,18,02,24,12.40
2014,09,18,02,25,12.40
2014,09,18,02,26,12.40
2014,09,18,02,27,12.40
2014,09,18,02,28,12.40
2014,09,18,02,29,12.40
2014,09,18,02,30,12.40
2014,09,18,02,31,12.50
2014,09,18,02,32,12.50
2014,09,18,02,33,12.50
2014,09,18,02,34,12.50
2014,09,18,02,35,12.50
2014,09,18,02,36,12.50
2014,09,18,02,37,12.50
2014,09,18,02,38,12.50
2014,09,18,02,39,12.60
2014,09,18,02,40,12.60
2014,09,18,02,41,12.60
2014,09,18,02,42,12.60
2014,09,18,02,43,12.60
2014,09,18,02,44,12.60
2014,09,18,02,45,12.60
2014,09,18,02,46,12.60
2014,09,18,02,47,12.60
2014,09,18,02,48,12.60
2014,09,18,02,49,12.60
2014,09,18,02,50,12.60
2014,09,18,02,51,12.60
2014,09,18,02,52,12.60
2014,09,18,02,53,12.60
2014,09,18,02,54,12.60
2014,09,18,02,55,12.60
2014,09,18,02,56,12.60
2014,09,18,02,57,12.70
2014,09,18,02,58,12.70
2014,09,18,02,59,12.70
2014,09,18,03,00,12.70
2014,09,18,03,01,12.70
2014,09,18,03,02,12.80
2014,09,18,03,03,12.80
2014,09,18,03,04,12.90
2014,09,18,03,05,12.90
2014,09,18,03,06,13.00
2014,09,18,03,07,13.00
2014,09,18,03,08,13.00
2014,09,18,03,09,13.00
2014,09,18,03,10,13.00
2014,09,18,03,11,13.00
2014,09,18,03,12,13.00
2014,09,18,03,13,13.00
2014,09,18,03,14,13.00
2014,09,18,03,15,13.00
2014,09,18,03,16,13.00
2014,09,18,03,17,13.00
2014,09,18,03,18,13.00
2014,09,18,03,19,13.00
2014,09,18,03,20,13.10
2014,09,18,03,21,13.10
2014,09,18,03,22,13.10
2014,09,18,03,23,13.10
2014,09,18,03,24,13.10
2014,09,18,03,25,13.10
2014,09,18,03,26,13.10
2014,09,18,03,27,13.10
2014,09,18,03,28,13.10
2014,09,18,03,29,13.10
2014,09,18,03,30,13.10
2014,09,18,03,31,13.10
2014,09,18,03,32,13.10
2014,09,18,03,33,13.10
2014,09,18,03,34,13.20
2014,09,18,03,35,13.20
2014,09,18,03,36,13.20
2014,09,18,03,37,13.20
2014,09,18,03,38,13.20
2014,09,18,03,39,13.20
2014,09,18,03,40,13.20
2014,09,18,03,41,13.20
2014,09,18,03,42,13.20
2014,09,18,03,43,13.20
2014,09,18,03,44,13.20
2014,09,18,03,45,13.30
2014,09,18,03,46,13.30
2014,09,18,03,47,13.30
2014,09,18,03,48,13.30
2014,09,18,03,49,13.30
2014,09,18,03,50,13.30
2014,09,18,03,51,13.30
2014,09,18,03,52,13.30
2014,09,18,03,53,13.30
2014,09,18,03,54,13.30
2014,09,18,03,55,13.40
2014,09,18,03,56,13.40
2014,09,18,03,57,13.40
2014,09,18,03,58,13.40
2014,09,18,03,59,13.40
2014,09,18,04,00,13.40
2014,09,18,04,01,13.40
2014,09,18,04,02,13.40
2014,09,18,04,03,13.40
2014,09,18,04,04,13.40
2014,09,18,04,05,13.40
2014,09,18,04,06,13.40
2014,09,18,04,07,13.40
2014,09,18,04,08,13.40
2014,09,18,04,09,13.40
2014,09,18,04,10,13.40
2014,09,18,04,11,13.40
2014,09,18,04,12,13.40
2014,09,18,04,13,13.40
2014,09,18,04,14,13.40
2014,09,18,04,15,13.40
2014,09,18,04,16,13.50
2014,09,18,04,17,13.50
2014,09,18,04,18,13.50
2014,09,18,04,19,13.50
2014,09,18,04,20,13.60
2014,09,18,04,21,13.60
2014,09,18,04,22,13.60
2014,09,18,04,23,13.60
2014,09,18,04,24,13.60
2014,09,18,04,25,13.60
2014,09,18,04,26,13.60
2014,09,18,04,27,13.70
2014,09,18,04,28,13.70
2014,09,18,04,29,13.70
2014,09,18,04,30,13.70
2014,09,18,04,31,13.70
2014,09,18,04,32,13.70
2014,09,18,04,33,13.70
2014,09,18,04,34,13.70
2014,09,18,04,35,13.70
2014,09,18,04,36,13.70
2014,09,18,04,37,13.70
2014,09,18,04,38,13.70
2014,09,18,04,39,13.70
2014,09,18,04,40,13.70
2014,09,18,04,41,13.70
2014,09,18,04,42,13.70
2014,09,18,04,43,13.70
2014,09,18,04,44,13.70
2014,09,18,04,45,13.70
2014,09,18,04,46,13.70
2014,09,18,04,47,13.70
2014,09,18,04,48,13.70
2014,09,18,04,49,13.70
2014,09,18,04,50,13.70
2014,09,18,04,51,13.70
2014,09,18,04,52,13.70
2014,09,18,04,53,13.70
2014,09,18,04,54,13.70
2014,09,18,04,55,13.70
2014,09,18,04,56,13.70
2014,09,18,04,57,13.70
2014,09,18,04,58,13.70
2014,09,18,04,59,13.80
2014,09,18,05,00,13.80
2014,09,18,05,01,13.80
2014,09,18,05,02,13.80
2014,09,18,05,03,13.80
2014,09,18,05,04,13.80
2014,09,18,05,05,13.80
2014,09,18,05,06,13.80
2014,09,18,05,07,13.80
2014,09,18,05,08,13.80
2014,09,18,05,09,13.80
2014,09,18,05,10,13.80
2014,09,18,05,11,13.80
2014,09,18,05,12,13.80
2014,09,18,05,13,13.80
2014,09,18,05,14,13.80
2014,09,18,05,15,13.80
2014,09,18,05,16,13.80
2014,09,18,05,17,13.80
2014,09,18,05,18,13.80
2014,09,18,05,19,13.80
2014,09,18,05,20,13.80
2014,09,18,05,21,13.80
2014,09,18,05,22,13.80
2014,09,18,05,23,13.80
2014,09,18,05,24,13.80
2014,09,18,05,25,13.80
2014,09,18,05,26,13.80
2014,09,18,05,27,13.90
2014,09,18,05,28,13.90
2014,09,18,05,29,13.90
2014,09,18,05,30,13.90
2014,09,18,05,31,13.90
2014,09,18,05,32,13.90
2014,09,18,05,33,13.90
2014,09,18,05,34,13.90
2014,09,18,05,35,13.90
2014,09,18,05,36,13.80
2014,09,18,05,37,13.90
2014,09,18,05,38,13.90
2014,09,18,05,39,13.80
2014,09,18,05,40,13.80
2014,09,18,05,41,13.80
2014,09,18,05,42,13.80
2014,09,18,05,43,13.80
2014,09,18,05,44,13.80
2014,09,18,05,45,13.80
2014,09,18,05,46,13.80
2014,09,18,05,47,13.80
2014,09,18,05,48,13.80
2014,09,18,05,49,13.80
2014,09,18,05,50,13.80
2014,09,18,05,51,13.80
2014,09,18,05,52,13.80
2014,09,18,05,53,13.80
2014,09,18,05,54,13.80
2014,09,18,05,55,13.80
2014,09,18,05,56,13.80
2014,09,18,05,57,13.80
2014,09,18,05,58,13.80
2014,09,18,05,59,13.70
2014,09,18,06,00,13.70
2014,09,18,06,01,13.70
2014,09,18,06,02,13.70
2014,09,18,06,03,13.60
2014,09,18,06,04,13.60
2014,09,18,06,05,13.60
2014,09,18,06,06,13.50
2014,09,18,06,07,13.50
2014,09,18,06,08,13.40
2014,09,18,06,09,13.40
2014,09,18,06,10,13.30
2014,09,18,06,11,13.30
2014,09,18,06,12,13.20
2014,09,18,06,13,13.20
2014,09,18,06,14,13.20
2014,09,18,06,15,13.10
2014,09,18,06,16,13.10
2014,09,18,06,17,13.10
2014,09,18,06,18,13.00
2014,09,18,06,19,13.00
2014,09,18,06,20,13.00
2014,09,18,06,21,12.90
2014,09,18,06,22,12.90
2014,09,18,06,23,12.90
2014,09,18,06,24,12.80
2014,09,18,06,25,12.80
2014,09,18,06,26,12.80
2014,09,18,06,27,12.70
2014,09,18,06,28,12.70
2014,09,18,06,29,12.70
2014,09,18,06,30,12.70
2014,09,18,06,31,12.70
2014,09,18,06,32,12.70
2014,09,18,06,33,12.70
2014,09,18,06,34,12.70
2014,09,18,06,35,12.60
2014,09,18,06,36,12.60
2014,09,18,06,37,12.60
2014,09,18,06,38,12.60
2014,09,18,06,39,12.60
2014,09,18,06,40,12.60
2014,09,18,06,41,12.60
2014,09,18,06,42,12.60
2014,09,18,06,43,12.60
2014,09,18,06,44,12.60
2014,09,18,06,45,12.60
2014,09,18,06,46,12.60
2014,09,18,06,47,12.60
2014,09,18,06,48,12.60
2014,09,18,06,49,12.60
2014,09,18,06,50,12.60
2014,09,18,06,51,12.60
2014,09,18,06,52,12.60
2014,09,18,06,53,12.60
2014,09,18,06,54,12.60
2014,09,18,06,55,12.60
2014,09,18,06,56,12.60
2014,09,18,06,57,12.60
2014,09,18,06,58,12.60
2014,09,18,06,59,12.60
2014,09,18,07,00,12.60
2014,09,18,07,01,12.60
2014,09,18,07,02,12.60
2014,09,18,07,03,12.60
2014,09,18,07,04,12.60
2014,09,18,07,05,12.60
2014,09,18,07,06,12.60
2014,09,18,07,07,12.60
2014,09,18,07,08,12.60
2014,09,18,07,09,12.60
2014,09,18,07,10,12.60
2014,09,18,07,11,12.60
2014,09,18,07,12,12.60
2014,09,18,07,13,12.60
2014,09,18,07,14,12.60
2014,09,18,07,15,12.60
2014,09,18,07,16,12.60
2014,09,18,07,17,12.60
2014,09,18,07,18,12.60
2014,09,18,07,19,12.70
2014,09,18,07,20,12.70
2014,09,18,07,21,12.70
2014,09,18,07,22,12.70
2014,09,18,07,23,12.70
2014,09,18,07,24,12.70
2014,09,18,07,25,12.80
2014,09,18,07,26,12.80
2014,09,18,07,27,12.80
2014,09,18,07,28,12.80
2014,09,18,07,29,12.80
2014,09,18,07,30,12.80
2014,09,18,07,31,12.80
2014,09,18,07,32,12.80
2014,09,18,07,33,12.80
2014,09,18,07,34,12.80
2014,09,18,07,35,12.80
2014,09,18,07,36,12.80
2014,09,18,07,37,12.80
2014,09,18,07,38,12.80
2014,09,18,07,39,12.80
2014,09,18,07,40,12.80
2014,09,18,07,41,12.80
2014,09,18,07,42,12.80
2014,09,18,07,43,12.80
2014,09,18,07,44,12.80
2014,09,18,07,45,12.80
2014,09,18,07,46,12.80
2014,09,18,07,47,12.80
2014,09,18,07,48,12.80
2014,09,18,07,49,12.80
2014,09,18,07,50,12.80
2014,09,18,07,51,12.80
2014,09,18,07,52,12.80
2014,09,18,07,53,12.90
2014,09,18,07,54,12.90
2014,09,18,07,55,12.90
2014,09,18,07,56,12.90
2014,09,18,07,57,12.90
2014,09,18,07,58,12.90
2014,09,18,07,59,12.90
2014,09,18,08,00,12.90
2014,09,18,08,01,12.90
2014,09,18,08,02,12.90
2014,09,18,08,03,12.90
2014,09,18,08,04,13.00
2014,09,18,08,05,13.00
2014,09,18,08,06,13.00
2014,09,18,08,07,13.10
2014,09,18,08,08,13.10
2014,09,18,08,09,13.10
2014,09,18,08,10,13.10
2014,09,18,08,11,13.10
2014,09,18,08,12,13.10
2014,09,18,08,13,13.10
2014,09,18,08,14,13.10
2014,09,18,08,15,13.20
2014,09,18,08,16,13.20
2014,09,18,08,17,13.20
2014,09,18,08,18,13.30
2014,09,18,08,19,13.30
2014,09,18,08,20,13.30
2014,09,18,08,21,13.30
2014,09,18,08,22,13.30
2014,09,18,08,23,13.40
2014,09,18,08,24,13.40
2014,09,18,08,25,13.40
2014,09,18,08,26,13.40
2014,09,18,08,27,13.40
2014,09,18,08,28,13.40
2014,09,18,08,29,13.40
2014,09,18,08,30,13.50
2014,09,18,08,31,13.50
2014,09,18,08,32,13.60
2014,09,18,08,33,13.60
2014,09,18,08,34,13.60
2014,09,18,08,35,13.60
2014,09,18,08,36,13.70
2014,09,18,08,37,13.70
2014,09,18,08,38,13.80
2014,09,18,08,39,13.80
2014,09,18,08,40,13.80
2014,09,18,08,41,13.90
2014,09,18,08,42,13.90
2014,09,18,08,43,14.00
2014,09,18,08,44,14.00
2014,09,18,08,45,14.10
2014,09,18,08,46,14.10
2014,09,18,08,47,14.20
2014,09,18,08,48,14.20
2014,09,18,08,49,14.30
2014,09,18,08,50,14.30
2014,09,18,08,51,14.40
2014,09,18,08,52,14.50
2014,09,18,08,53,14.60
2014,09,18,08,54,14.70
2014,09,18,08,55,14.80
2014,09,18,08,56,14.90
2014,09,18,08,57,15.00
2014,09,18,08,58,15.10
2014,09,18,08,59,15.30
2014,09,18,09,00,15.40
2014,09,18,09,01,15.50
2014,09,18,09,02,15.60
2014,09,18,09,03,15.70
2014,09,18,09,04,15.80
2014,09,18,09,05,15.80
2014,09,18,09,06,15.90
2014,09,18,09,07,16.00
2014,09,18,09,08,16.10
2014,09,18,09,09,16.10
2014,09,18,09,10,16.20
2014,09,18,09,11,16.20
2014,09,18,09,12,16.30
2014,09,18,09,13,16.30
2014,09,18,09,14,16.30
2014,09,18,09,15,16.40
2014,09,18,09,16,16.40
2014,09,18,09,17,16.40
2014,09,18,09,18,16.50
2014,09,18,09,19,16.50
2014,09,18,09,20,16.50
2014,09,18,09,21,16.60
2014,09,18,09,22,16.70
2014,09,18,09,23,16.70
2014,09,18,09,24,16.80
2014,09,18,09,25,16.80
2014,09,18,09,26,16.80
2014,09,18,09,27,16.90
2014,09,18,09,28,16.90
2014,09,18,09,29,17.00
2014,09,18,09,30,17.00
2014,09,18,09,31,17.00
2014,09,18,09,32,17.10
2014,09,18,09,33,17.10
2014,09,18,09,34,17.10
2014,09,18,09,35,17.10
2014,09,18,09,36,17.10
2014,09,18,09,37,17.10
2014,09,18,09,38,17.10
2014,09,18,09,39,17.10
2014,09,18,09,40,17.20
2014,09,18,09,41,17.20
2014,09,18,09,42,17.20
2014,09,18,09,43,17.20
2014,09,18,09,44,17.20
2014,09,18,09,45,17.20
2014,09,18,09,46,17.20
2014,09,18,09,47,17.20
2014,09,18,09,48,17.20
2014,09,18,09,49,17.20
2014,09,18,09,50,17.10
2014,09,18,09,51,17.10
2014,09,18,09,52,17.10
2014,09,18,09,53,17.10
2014,09,18,09,54,17.10
2014,09,18,09,55,17.10
2014,09,18,09,56,17.10
2014,09,18,09,57,17.10
2014,09,18,09,58,17.10
2014,09,18,09,59,17.10
2014,09,18,10,00,17.10
2014,09,18,10,01,17.10
2014,09,18,10,02,17.00
2014,09,18,10,03,17.00
2014,09,18,10,04,17.00
2014,09,18,10,05,17.00
2014,09,18,10,06,17.00
2014,09,18,10,07,17.00
2014,09,18,10,08,17.00
2014,09,18,10,09,17.10
2014,09,18,10,10,17.10
2014,09,18,10,11,17.10
2014,09,18,10,12,17.10
2014,09,18,10,13,17.10
2014,09,18,10,14,17.10
2014,09,18,10,15,17.10
2014,09,18,10,16,17.10
2014,09,18,10,17,17.20
2014,09,18,10,18,17.20
2014,09,18,10,19,17.20
2014,09,18,10,20,17.20
2014,09,18,10,21,17.20
2014,09,18,10,22,17.20
2014,09,18,10,23,17.20
2014,09,18,10,24,17.20
2014,09,18,10,25,17.30
2014,09,18,10,26,17.30
2014,09,18,10,27,17.30
2014,09,18,10,28,17.30
2014,09,18,10,29,17.30
2014,09,18,10,30,17.40
2014,09,18,10,31,17.40
2014,09,18,10,32,17.40
2014,09,18,10,33,17.40
2014,09,18,10,34,17.50
2014,09,18,10,35,17.50
2014,09,18,10,36,17.50
2014,09,18,10,37,17.50
2014,09,18,10,38,17.50
2014,09,18,10,39,17.50
2014,09,18,10,40,17.50
2014,09,18,10,41,17.50
2014,09,18,10,42,17.50
2014,09,18,10,43,17.60
2014,09,18,10,44,17.60
2014,09,18,10,45,17.60
2014,09,18,10,46,17.60
2014,09,18,10,47,17.60
2014,09,18,10,48,17.60
2014,09,18,10,49,17.60
2014,09,18,10,50,17.60
2014,09,18,10,51,17.60
2014,09,18,10,52,17.60
2014,09,18,10,53,17.50
2014,09,18,10,54,17.50
2014,09,18,10,55,17.50
2014,09,18,10,56,17.50
2014,09,18,10,57,17.50
2014,09,18,10,58,17.50
2014,09,18,10,59,17.50
2014,09,18,11,00,17.50
2014,09,18,11,01,17.50
2014,09,18,11,02,17.50
2014,09,18,11,03,17.40
2014,09,18,11,04,17.40
2014,09,18,11,05,17.40
2014,09,18,11,06,17.40
2014,09,18,11,07,17.40
2014,09,18,11,08,17.40
2014,09,18,11,09,17.40
2014,09,18,11,10,17.40
2014,09,18,11,11,17.40
2014,09,18,11,12,17.40
2014,09,18,11,13,17.40
2014,09,18,11,14,17.40
2014,09,18,11,15,17.40
2014,09,18,11,16,17.40
2014,09,18,11,17,17.40
2014,09,18,11,18,17.40
2014,09,18,11,19,17.50
2014,09,18,11,20,17.50
2014,09,18,11,21,17.60
2014,09,18,11,22,17.60
2014,09,18,11,23,17.60
2014,09,18,11,24,17.60
2014,09,18,11,25,17.70
2014,09,18,11,26,17.70
2014,09,18,11,27,17.70
2014,09,18,11,28,17.70
2014,09,18,11,29,17.80
2014,09,18,11,30,17.80
2014,09,18,11,31,17.80
2014,09,18,11,32,17.80
2014,09,18,11,33,17.90
2014,09,18,11,34,17.90
2014,09,18,11,35,17.90
2014,09,18,11,36,17.90
2014,09,18,11,37,17.90
2014,09,18,11,38,17.90
2014,09,18,11,39,17.90
2014,09,18,11,40,17.90
2014,09,18,11,41,17.90
2014,09,18,11,42,18.00
2014,09,18,11,43,18.00
2014,09,18,11,44,18.00
2014,09,18,11,45,18.10
2014,09,18,11,46,18.10
2014,09,18,11,47,18.10
2014,09,18,11,48,18.10
2014,09,18,11,49,18.10
2014,09,18,11,50,18.10
2014,09,18,11,51,18.10
2014,09,18,11,52,18.20
2014,09,18,11,53,18.20
2014,09,18,11,54,18.20
2014,09,18,11,55,18.20
2014,09,18,11,56,18.20
2014,09,18,11,57,18.20
2014,09,18,11,58,18.20
2014,09,18,11,59,18.20
2014,09,18,12,00,18.20
2014,09,18,12,01,18.30
2014,09,18,12,02,18.30
2014,09,18,12,03,18.30
2014,09,18,12,04,18.30
2014,09,18,12,05,18.30
2014,09,18,12,06,18.30
2014,09,18,12,07,18.30
2014,09,18,12,08,18.40
2014,09,18,12,09,18.40
2014,09,18,12,10,18.30
2014,09,18,12,11,18.40
2014,09,18,12,12,18.40
2014,09,18,12,13,18.20
2014,09,18,12,14,17.90
2014,09,18,12,15,17.70
2014,09,18,12,16,17.50
2014,09,18,12,17,17.20
2014,09,18,12,18,17.00
2014,09,18,12,19,16.90
2014,09,18,12,20,16.70
2014,09,18,12,21,16.60
2014,09,18,12,22,16.50
2014,09,18,12,23,16.30
2014,09,18,12,24,16.20
2014,09,18,12,25,16.10
2014,09,18,12,26,16.10
2014,09,18,12,27,16.00
2014,09,18,12,28,16.00
2014,09,18,12,29,16.00
2014,09,18,12,30,16.00
2014,09,18,12,31,15.90
2014,09,18,12,32,15.90
2014,09,18,12,33,15.90
2014,09,18,12,34,15.90
2014,09,18,12,35,15.90
2014,09,18,12,36,15.90
2014,09,18,12,37,16.00
2014,09,18,12,38,16.00
2014,09,18,12,39,16.00
2014,09,18,12,40,16.10
2014,09,18,12,41,16.10
2014,09,18,12,42,16.20
2014,09,18,12,43,16.20
2014,09,18,12,44,16.20
2014,09,18,12,45,16.20
2014,09,18,12,46,16.30
2014,09,18,12,47,16.30
2014,09,18,12,48,16.30
2014,09,18,12,49,16.30
2014,09,18,12,50,16.30
2014,09,18,12,51,16.30
2014,09,18,12,52,16.20
2014,09,18,12,53,16.20
2014,09,18,12,54,16.20
2014,09,18,12,55,16.30
2014,09,18,12,56,16.30
2014,09,18,12,57,16.40
2014,09,18,12,58,16.50
2014,09,18,12,59,16.50
2014,09,18,13,00,16.60
2014,09,18,13,01,16.60
2014,09,18,13,02,16.60
2014,09,18,13,03,16.60
2014,09,18,13,04,16.60
2014,09,18,13,05,16.60
2014,09,18,13,06,16.60
2014,09,18,13,07,16.70
2014,09,18,13,08,16.70
2014,09,18,13,09,16.80
2014,09,18,13,10,16.80
2014,09,18,13,11,16.80
2014,09,18,13,12,16.90
2014,09,18,13,13,16.90
2014,09,18,13,14,16.80
2014,09,18,13,15,16.80
2014,09,18,13,16,16.80
2014,09,18,13,17,16.80
2014,09,18,13,18,16.80
2014,09,18,13,19,16.80
2014,09,18,13,20,16.80
2014,09,18,13,21,16.90
2014,09,18,13,22,16.90
2014,09,18,13,23,16.90
2014,09,18,13,24,16.90
2014,09,18,13,25,16.90
2014,09,18,13,26,16.90
2014,09,18,13,27,16.90
2014,09,18,13,28,16.90
2014,09,18,13,29,16.90
2014,09,18,13,30,16.80
2014,09,18,13,31,16.80
2014,09,18,13,32,16.80
2014,09,18,13,33,16.80
2014,09,18,13,34,16.80
2014,09,18,13,35,16.80
2014,09,18,13,36,16.80
2014,09,18,13,37,16.70
2014,09,18,13,38,16.70
2014,09,18,13,39,16.70
2014,09,18,13,40,16.60
2014,09,18,13,41,16.60
2014,09,18,13,42,16.50
2014,09,18,13,43,16.40
2014,09,18,13,44,16.40
2014,09,18,13,45,16.40
2014,09,18,13,46,16.40
2014,09,18,13,47,16.40
2014,09,18,13,48,16.40
2014,09,18,13,49,16.40
2014,09,18,13,50,16.40
2014,09,18,13,51,16.40
2014,09,18,13,52,16.40
2014,09,18,13,53,16.40
2014,09,18,13,54,16.40
2014,09,18,13,55,16.40
2014,09,18,13,56,16.40
2014,09,18,13,57,16.40
2014,09,18,13,58,16.40
2014,09,18,13,59,16.40
2014,09,18,14,00,16.30
2014,09,18,14,01,16.30
2014,09,18,14,02,16.30
2014,09,18,14,03,16.30
2014,09,18,14,04,16.30
2014,09,18,14,05,16.20
2014,09,18,14,06,16.20
2014,09,18,14,07,16.20
2014,09,18,14,08,16.20
2014,09,18,14,09,16.20
2014,09,18,14,10,16.30
2014,09,18,14,11,16.30
2014,09,18,14,12,16.30
2014,09,18,14,13,16.30
2014,09,18,14,14,16.30
2014,09,18,14,15,16.30
2014,09,18,14,16,16.30
2014,09,18,14,17,16.30
2014,09,18,14,18,16.30
2014,09,18,14,19,16.30
2014,09,18,14,20,16.30
2014,09,18,14,21,16.40
2014,09,18,14,22,16.40
2014,09,18,14,23,16.40
2014,09,18,14,24,16.40
2014,09,18,14,25,16.40
2014,09,18,14,26,16.40
2014,09,18,14,27,16.40
2014,09,18,14,28,16.50
2014,09,18,14,29,16.50
2014,09,18,14,30,16.50
2014,09,18,14,31,16.50
2014,09,18,14,32,16.50
2014,09,18,14,33,16.60
2014,09,18,14,34,16.60
2014,09,18,14,35,16.60
2014,09,18,14,36,16.60
2014,09,18,14,37,16.60
2014,09,18,14,38,16.60
2014,09,18,14,39,16.60
2014,09,18,14,40,16.70
2014,09,18,14,41,16.70
2014,09,18,14,42,16.70
2014,09,18,14,43,16.70
2014,09,18,14,44,16.70
2014,09,18,14,45,16.80
2014,09,18,14,46,16.80
2014,09,18,14,47,16.80
2014,09,18,14,48,16.80
2014,09,18,14,49,16.80
2014,09,18,14,50,16.80
2014,09,18,14,51,16.80
2014,09,18,14,52,16.90
2014,09,18,14,53,16.90
2014,09,18,14,54,16.90
2014,09,18,14,55,16.90
2014,09,18,14,56,16.90
2014,09,18,14,57,16.90
2014,09,18,14,58,16.90
2014,09,18,14,59,16.90
2014,09,18,15,00,17.00
2014,09,18,15,01,17.00
2014,09,18,15,02,17.00
2014,09,18,15,03,17.00
2014,09,18,15,04,17.10
2014,09,18,15,05,17.10
2014,09,18,15,06,17.10
2014,09,18,15,07,17.10
2014,09,18,15,08,17.10
2014,09,18,15,09,17.10
2014,09,18,15,10,17.10
2014,09,18,15,11,17.10
2014,09,18,15,12,17.10
2014,09,18,15,13,17.20
2014,09,18,15,14,17.10
2014,09,18,15,15,17.10
2014,09,18,15,16,17.10
2014,09,18,15,17,17.10
2014,09,18,15,18,17.10
2014,09,18,15,19,17.10
2014,09,18,15,20,17.10
2014,09,18,15,21,17.10
2014,09,18,15,22,17.10
2014,09,18,15,23,17.10
2014,09,18,15,24,17.10
2014,09,18,15,25,17.10
2014,09,18,15,26,17.10
2014,09,18,15,27,17.10
2014,09,18,15,28,17.10
2014,09,18,15,29,17.10
2014,09,18,15,30,17.10
2014,09,18,15,31,17.10
2014,09,18,15,32,17.10
2014,09,18,15,33,17.10
2014,09,18,15,34,17.10
2014,09,18,15,35,17.10
2014,09,18,15,36,17.10
2014,09,18,15,37,17.10
2014,09,18,15,38,17.10
2014,09,18,15,39,17.20
2014,09,18,15,40,17.10
2014,09,18,15,41,17.10
2014,09,18,15,42,17.10
2014,09,18,15,43,17.10
2014,09,18,15,44,17.10
2014,09,18,15,45,17.10
2014,09,18,15,46,17.10
2014,09,18,15,47,17.00
2014,09,18,15,48,17.00
2014,09,18,15,49,17.00
2014,09,18,15,50,16.90
2014,09,18,15,51,16.90
2014,09,18,15,52,16.90
2014,09,18,15,53,16.90
2014,09,18,15,54,16.90
2014,09,18,15,55,16.90
2014,09,18,15,56,16.90
2014,09,18,15,57,16.90
2014,09,18,15,58,17.00
2014,09,18,15,59,17.00
2014,09,18,16,00,17.00
2014,09,18,16,01,17.00
2014,09,18,16,02,17.00
2014,09,18,16,03,17.00
2014,09,18,16,04,16.90
2014,09,18,16,05,16.90
2014,09,18,16,06,16.90
2014,09,18,16,07,16.90
2014,09,18,16,08,16.90
2014,09,18,16,09,16.90
2014,09,18,16,10,16.90
2014,09,18,16,11,16.90
2014,09,18,16,12,16.90
2014,09,18,16,13,16.90
2014,09,18,16,14,16.80
2014,09,18,16,15,16.80
2014,09,18,16,16,16.70
2014,09,18,16,17,16.70
2014,09,18,16,18,16.70
2014,09,18,16,19,16.70
2014,09,18,16,20,16.70
2014,09,18,16,21,16.70
2014,09,18,16,22,16.70
2014,09,18,16,23,16.60
2014,09,18,16,24,16.60
2014,09,18,16,25,16.60
2014,09,18,16,26,16.60
2014,09,18,16,27,16.60
2014,09,18,16,28,16.50
2014,09,18,16,29,16.50
2014,09,18,16,30,16.50
2014,09,18,16,31,16.40
2014,09,18,16,32,16.50
2014,09,18,16,33,16.50
2014,09,18,16,34,16.50
2014,09,18,16,35,16.50
2014,09,18,16,36,16.50
2014,09,18,16,37,16.50
2014,09,18,16,38,16.50
2014,09,18,16,39,16.50
2014,09,18,16,40,16.50
2014,09,18,16,41,16.40
2014,09,18,16,42,16.40
2014,09,18,16,43,16.40
2014,09,18,16,44,16.30
2014,09,18,16,45,16.30
2014,09,18,16,46,16.30
2014,09,18,16,47,16.30
2014,09,18,16,48,16.30
2014,09,18,16,49,16.30
2014,09,18,16,50,16.30
2014,09,18,16,51,16.30
2014,09,18,16,52,16.30
2014,09,18,16,53,16.30
2014,09,18,16,54,16.30
2014,09,18,16,55,16.30
2014,09,18,16,56,16.30
2014,09,18,16,57,16.30
2014,09,18,16,58,16.30
2014,09,18,16,59,16.30
2014,09,18,17,00,16.30
2014,09,18,17,01,16.30
2014,09,18,17,02,16.20
2014,09,18,17,03,16.20
2014,09,18,17,04,16.20
2014,09,18,17,05,16.20
2014,09,18,17,06,16.20
2014,09,18,17,07,16.20
2014,09,18,17,08,16.20
2014,09,18,17,09,16.20
2014,09,18,17,10,16.10
2014,09,18,17,11,16.10
2014,09,18,17,12,16.10
2014,09,18,17,13,16.10
2014,09,18,17,14,16.10
2014,09,18,17,15,16.10
2014,09,18,17,16,16.10
2014,09,18,17,17,16.10
2014,09,18,17,18,16.00
2014,09,18,17,19,16.00